Location: Morlupo
(42.1333°N, 12.5000°E)
Time: 16:16:36
(UTC+00:00)

HJ-1C - Pass Details

Date: 18 September 2020
Orbit: 432 x 443 km, 97.1° (Epoch: 26 October)

Event Time Altitude Azimuth Distance (km) Brightness Sun altitude
Rises 18:23:02 0° 175° (S) 2,393 6.9 -13.5°
Reaches altitude 10° 18:25:03 10° 179° (S) 1,531 5.9 -13.9°
Maximum altitude 18:28:17 59° 259° (W) 508 3.9 -14.5°
Drops below altitude 10° 18:31:33 10° 341° (NNW) 1,547 6.6 -15.0°
Sets 18:33:36 0° 345° (NNW) 2,421 7.6 -15.4°
